Stations météo

réclame
Mon MeteoGroup
Lechfeld, Allemagne (10856): Température de l'air & dewpoint: 05.12.2017 04:00:00 - 11.12.2017 04:00:00 (CET)Lechfeld, Allemagne (10856): Vitesse du vent & gusts: 05.12.2017 04:00:00 - 11.12.2017 04:00:00 (CET)Lechfeld, Allemagne (10856): Direction du vent: 05.12.2017 04:00:00 - 11.12.2017 04:00:00 (CET)Lechfeld, Allemagne (10856): reduced air pressure: 05.12.2017 04:00:00 - 11.12.2017 04:00:00 (CET)Lechfeld, Allemagne (10856): visibility: 05.12.2017 04:00:00 - 11.12.2017 04:00:00 (CET)
Date & Time tt [°C] td [°C] ff [km/h] ff [knt] fx [km/h] fx [knt] dd ppp [hPa] vv [km]
11.12.2017 04:00:00 2,0 1,4 14 8 - - SSE 990,3 14
11.12.2017 03:00:00 4,0 2,6 14 8 - - WSW 990,8 13
11.12.2017 02:00:00 2,6 0,8 11 6 - - W 991,0 11
11.12.2017 01:00:00 2,7 1,0 14 8 - - S 990,6 14
11.12.2017 00:00:00 2,6 0,8 11 6 - - SSW 991,4 14
10.12.2017 23:00:00 3,7 1,1 22 12 - - S 991,5 15
10.12.2017 22:00:00 3,7 1,6 25 14 - - SSW 992,2 7
10.12.2017 21:00:00 3,7 1,1 32 18 65 35 SSW 992,8 11
10.12.2017 20:00:00 4,3 0,4 40 21 61 33 SSW 992,4 14
10.12.2017 19:00:00 5,2 0,4 40 21 - - SSW 991,7 14
10.12.2017 18:00:00 5,2 1,3 43 23 68 37 SSW 990,7 1,3
10.12.2017 17:00:00 0,0 -0,6 22 12 - - S 991,9 12
10.12.2017 16:00:00 -2,0 -2,7 14 8 - - S 992,0 9
10.12.2017 15:00:00 -3,1 -3,8 4 2 - - N 991,7 1,1
10.12.2017 14:00:00 -3,8 -4,7 11 6 - - SE 993,0 0,7
10.12.2017 13:00:00 -4,2 -5,7 18 10 - - ESE 995,6 0,6
10.12.2017 12:00:00 -2,1 -10,9 14 8 - - SE 997,6 17
10.12.2017 11:00:00 -2,8 -9,4 14 8 - - SE 1000,6 16
10.12.2017 10:00:00 -4,3 -10,6 14 8 - - SE 1003,1 17
10.12.2017 09:00:00 -7,5 -10,3 7 4 - - SE 1006,3 17
10.12.2017 08:00:00 -8,7 -12,8 7 4 - - S 1009,1 18
10.12.2017 07:00:00 -5,6 -10,4 11 6 - - S 1010,3 20
10.12.2017 06:00:00 -5,2 -8,8 11 6 - - S 1011,4 19
10.12.2017 05:00:00 -4,9 -8,3 14 8 - - S 1012,3 18
10.12.2017 04:00:00 -4,2 -8,0 14 8 - - S 1013,5 19
10.12.2017 03:00:00 -3,9 -7,7 14 8 - - S 1014,8 16
10.12.2017 02:00:00 -3,6 -7,2 14 8 - - SSW 1015,4 17
10.12.2017 01:00:00 -3,5 -7,4 14 8 - - SW 1016,4 17
10.12.2017 00:00:00 -4,1 -7,4 14 8 - - SSW 1017,4 18
09.12.2017 23:00:00 -3,8 -7,6 14 8 - - SW 1018,1 19
09.12.2017 22:00:00 -3,5 -6,9 18 10 - - SW 1018,8 18
09.12.2017 21:00:00 -3,1 -6,9 22 12 - - SW 1018,8 17
09.12.2017 20:00:00 -3,0 -6,0 18 10 - - SW 1018,9 17
09.12.2017 19:00:00 -3,1 -6,4 18 10 - - SW 1019,0 17
09.12.2017 18:00:00 -2,9 -6,2 22 12 - - SW 1018,9 18
09.12.2017 17:00:00 -2,5 -6,5 25 14 47 25 SW 1018,7 19
09.12.2017 16:00:00 -1,4 -6,6 22 12 - - WSW 1018,4 19
09.12.2017 15:00:00 -1,1 -8,5 32 18 47 25 WSW 1018,4 16
09.12.2017 14:00:00 -1,6 -7,5 18 10 47 25 WSW 1018,6 17
09.12.2017 13:00:00 -1,6 -7,9 22 12 - - WSW 1018,9 17
09.12.2017 12:00:00 -1,7 -6,5 22 12 47 25 WSW 1018,8 16
09.12.2017 11:00:00 -2,3 -7,2 18 10 - - WSW 1019,1 16
09.12.2017 10:00:00 -2,6 -6,5 18 10 - - WSW 1018,6 16
09.12.2017 09:00:00 -3,0 -6,0 18 10 - - SW 1018,1 16
09.12.2017 08:00:00 -3,0 -6,1 22 12 - - SW 1017,3 17
09.12.2017 07:00:00 -3,3 -6,0 18 10 - - SW 1017,0 18
09.12.2017 06:00:00 -3,4 -6,2 14 8 - - SW 1017,0 19
09.12.2017 05:00:00 -2,8 -5,9 14 8 - - SW 1016,6 19
09.12.2017 04:00:00 -2,5 -4,4 14 8 - - WSW 1016,3 15
09.12.2017 03:00:00 -2,8 -4,6 14 8 - - WSW 1016,1 18
09.12.2017 02:00:00 -2,1 -3,9 11 6 - - WSW 1015,2 18
09.12.2017 01:00:00 -1,9 -3,8 18 10 - - W 1014,8 11
09.12.2017 00:00:00 -1,9 -2,8 25 14 47 25 WSW 1015,1 0,2
08.12.2017 23:00:00 -0,5 -2,9 14 8 - - WSW 1014,6 20
08.12.2017 22:00:00 -0,4 -3,0 22 12 - - SW 1015,0 19
08.12.2017 21:00:00 -0,1 -2,4 18 10 - - SW 1015,6 19
08.12.2017 20:00:00 0,4 -2,2 14 8 - - WSW 1015,2 19
08.12.2017 19:00:00 0,5 -1,7 14 8 - - WSW 1015,1 18
08.12.2017 18:00:00 0,4 -0,8 11 6 - - SSW 1014,8 13
08.12.2017 17:00:00 0,5 -1,1 18 10 76 41 WSW 1015,0 11
08.12.2017 16:00:00 2,0 -0,4 29 16 - - SW 1013,7 1,7
08.12.2017 15:00:00 2,4 0,7 18 10 - - SW 1013,1 14
08.12.2017 14:00:00 2,5 0,6 14 8 - - WSW 1013,2 15
08.12.2017 13:00:00 1,9 0,7 14 8 - - WSW 1013,5 15
08.12.2017 12:00:00 1,9 0,9 13 7 - - W 1013,2 8
08.12.2017 11:00:00 2,2 0,8 11 6 - - WSW 1013,8 10
08.12.2017 10:00:00 2,3 0,3 18 10 - - WNW 1013,7 8
08.12.2017 09:00:00 4,1 2,2 29 16 47 25 SW 1012,5 15
08.12.2017 08:00:00 4,0 2,4 25 14 50 27 SW 1012,4 12
08.12.2017 07:00:00 4,3 2,8 25 14 - - SW 1012,7 10
08.12.2017 06:00:00 4,7 2,9 32 18 61 33 SW 1012,3 10
08.12.2017 05:00:00 5,1 2,9 36 19 54 29 SW 1012,3 10
08.12.2017 04:00:00 5,1 2,1 36 19 - - SW 1013,0 8
08.12.2017 03:00:00 7,1 -2,6 29 16 54 29 SW 1013,1 20
08.12.2017 02:00:00 7,3 -4,7 32 18 50 27 SW 1012,6 30
08.12.2017 01:00:00 6,8 -4,6 29 16 - - SSW 1013,6 40
08.12.2017 00:00:00 6,6 -3,8 25 14 47 25 SSW 1014,5 40
07.12.2017 23:00:00 6,3 -3,2 29 16 - - SW 1015,6 50
07.12.2017 22:00:00 5,3 -3,1 22 12 - - SSW 1017,1 50
07.12.2017 21:00:00 4,5 -2,8 18 10 - - SW 1018,6 10
07.12.2017 20:00:00 3,7 -3,1 18 10 - - SSW 1019,5 50
07.12.2017 19:00:00 3,1 -3,7 14 8 - - SSW 1020,0 50
07.12.2017 18:00:00 3,3 -3,9 14 8 - - SSW 1020,7 60
07.12.2017 17:00:00 4,5 -3,8 18 10 - - SSW 1020,9 75
07.12.2017 16:00:00 6,0 -2,7 7 4 - - SW 1021,6 75
07.12.2017 15:00:00 7,1 -3,1 18 10 - - SW 1021,8 70
07.12.2017 14:00:00 7,1 -2,5 14 8 - - SW 1022,8 50
07.12.2017 13:00:00 6,7 -2,8 18 10 - - SW 1023,7 40
07.12.2017 12:00:00 6,1 -3,4 18 10 - - SW 1024,7 30
07.12.2017 11:00:00 4,6 -3,3 14 8 - - SW 1026,0 20
07.12.2017 10:00:00 1,0 -3,2 7 4 - - S 1027,3 15
07.12.2017 09:00:00 -2,3 -3,9 7 4 - - SSW 1028,3 15
07.12.2017 08:00:00 -4,0 -4,7 14 8 - - S 1029,0 10
07.12.2017 07:00:00 -4,0 -4,4 11 6 - - SSE 1029,6 5
07.12.2017 06:00:00 -3,3 -3,7 9 5 - - S 1029,8 2,0
07.12.2017 05:00:00 -2,7 -3,1 11 6 - - S 1030,0 1,0
07.12.2017 04:00:00 -2,2 -2,7 11 6 - - S 1030,5 1,5
07.12.2017 03:00:00 -1,6 -2,3 14 8 - - S 1030,9 6
07.12.2017 02:00:00 -1,3 -2,2 11 6 - - SSW 1031,4 6
07.12.2017 01:00:00 -1,3 -2,3 11 6 - - SSW 1032,0 6
07.12.2017 00:00:00 -1,1 -2,2 7 4 - - S 1032,7 6
06.12.2017 23:00:00 -1,0 -2,3 11 6 - - S 1033,1 6
06.12.2017 22:00:00 -0,9 -2,4 11 6 - - S 1033,6 10
06.12.2017 21:00:00 -0,6 -2,3 8 4 - - WSW 1034,1 10
06.12.2017 20:00:00 -0,3 -2,2 11 6 - - SW 1034,4 10
06.12.2017 19:00:00 0,0 -2,1 11 6 - - SW 1034,5 10
06.12.2017 18:00:00 0,3 -1,9 11 6 - - SSW 1034,8 12
06.12.2017 17:00:00 0,5 -1,9 11 6 - - SW 1034,8 15
06.12.2017 16:00:00 0,7 -1,9 11 6 - - SW 1035,0 15
06.12.2017 15:00:00 1,0 -1,7 14 8 - - SW 1034,9 15
06.12.2017 14:00:00 1,1 -1,9 14 8 - - WSW 1035,5 20
06.12.2017 13:00:00 1,1 -1,7 14 8 - - SW 1035,8 20
06.12.2017 12:00:00 1,1 -1,9 14 8 - - SW 1036,3 20
06.12.2017 11:00:00 0,9 -1,9 14 8 - - SW 1036,8 15
06.12.2017 10:00:00 0,7 -1,7 14 8 - - SSW 1036,8 15
06.12.2017 09:00:00 0,5 -1,8 14 8 - - SSW 1036,9 15
06.12.2017 08:00:00 0,5 -2,0 14 8 - - SW 1036,8 15
06.12.2017 07:00:00 0,4 -1,5 11 6 - - SSW 1036,7 15
06.12.2017 06:00:00 0,2 -1,2 11 6 - - SW 1037,1 15
06.12.2017 05:00:00 -0,2 -1,1 11 6 - - SSW 1037,2 15
06.12.2017 04:00:00 -0,6 -1,3 14 8 - - SW 1037,6 15
06.12.2017 03:00:00 -1,2 -1,7 18 10 - - SW 1038,3 15
06.12.2017 02:00:00 -1,5 -2,2 11 6 - - S 1038,2 15
06.12.2017 01:00:00 -1,1 -2,1 14 8 - - SSW 1038,3 15
06.12.2017 00:00:00 -0,9 -2,0 14 8 - - SSW 1038,2 15
05.12.2017 23:00:00 -0,4 -1,6 14 8 - - SSW 1038,2 15
05.12.2017 22:00:00 -0,2 -1,4 14 8 - - SSW 1038,4 15
05.12.2017 21:00:00 0,3 -1,1 11 6 - - SSW 1038,4 20
05.12.2017 20:00:00 0,6 -0,9 14 8 - - SW 1038,0 20
05.12.2017 19:00:00 1,9 -1,1 9 5 - - S 1037,7 10
05.12.2017 18:00:00 2,4 -0,5 11 6 - - WSW 1037,8 20
05.12.2017 17:00:00 2,5 -0,7 11 6 - - SW 1037,6 20
05.12.2017 16:00:00 2,7 -0,6 14 8 - - SW 1037,5 20
05.12.2017 15:00:00 3,1 -1,0 18 10 - - SW 1037,0 20
05.12.2017 14:00:00 3,1 -0,5 18 10 - - SW 1037,4 20
05.12.2017 13:00:00 3,1 -0,6 18 10 - - SW 1037,7 20
05.12.2017 12:00:00 2,7 -0,8 14 8 - - SW 1037,8 20
05.12.2017 11:00:00 2,5 -0,4 18 10 - - SW 1038,2 12
05.12.2017 10:00:00 1,2 -0,4 18 10 - - SW 1038,5 12
05.12.2017 09:00:00 1,0 -0,4 14 8 - - SW 1038,1 12
05.12.2017 08:00:00 0,8 -0,4 14 8 - - SW 1037,8 12
05.12.2017 07:00:00 0,8 -0,1 11 6 - - SSW 1037,5 12
05.12.2017 06:00:00 0,8 -0,2 14 8 - - SW 1037,1 15
05.12.2017 05:00:00 1,1 -0,1 14 8 - - SW 1036,9 15
05.12.2017 04:00:00 1,3 -0,1 18 10 - - SW 1036,9 15

tt = Température de l'air
td = dewpoint
ff = Vitesse du vent
fx = gusts
dd = Direction du vent
ppp = reduced air pressure
vv = visibility

stations d'obs. à proximité